TimeEST,TemperatureF,Dew PointF,Humidity,Sea Level PressureIn,VisibilityMPH,Wind Direction,Wind SpeedMPH,Gust SpeedMPH,PrecipitationIn,Events,Conditions,WindDirDegrees,DateUTC
12:53 AM,64.9,59.0,81,29.99,10.0,South,10.4,-,N/A,,Overcast,180,2013-01-30 05:53:00
1:53 AM,64.9,59.0,81,29.97,10.0,South,12.7,19.6,N/A,,Overcast,190,2013-01-30 06:53:00
2:53 AM,64.0,59.0,84,29.94,10.0,South,10.4,24.2,N/A,,Overcast,180,2013-01-30 07:53:00
3:53 AM,64.0,59.0,84,29.92,10.0,South,13.8,20.7,N/A,,Overcast,190,2013-01-30 08:53:00
4:17 AM,62.6,59.0,88,29.92,10.0,South,12.7,-,N/A,,Overcast,190,2013-01-30 09:17:00
4:53 AM,64.0,59.0,84,29.90,10.0,South,13.8,-,N/A,,Overcast,180,2013-01-30 09:53:00
5:53 AM,64.0,57.9,80,29.88,10.0,SSW,10.4,24.2,N/A,,Overcast,200,2013-01-30 10:53:00
6:15 AM,64.4,57.2,77,29.90,10.0,South,11.5,19.6,N/A,,Overcast,190,2013-01-30 11:15:00
6:53 AM,64.0,59.0,84,29.87,10.0,South,15.0,24.2,N/A,,Overcast,190,2013-01-30 11:53:00
7:53 AM,64.0,59.0,84,29.85,10.0,South,13.8,21.9,N/A,,Overcast,190,2013-01-30 12:53:00
8:18 AM,64.4,59.0,83,29.86,10.0,South,16.1,24.2,N/A,,Overcast,190,2013-01-30 13:18:00
8:53 AM,66.0,60.1,81,29.83,10.0,SSW,16.1,27.6,N/A,,Overcast,200,2013-01-30 13:53:00
9:53 AM,66.9,60.1,79,29.82,10.0,South,20.7,27.6,0.00,,Overcast,180,2013-01-30 14:53:00
10:53 AM,69.1,59.0,70,29.80,10.0,South,23.0,32.2,N/A,,Overcast,180,2013-01-30 15:53:00
11:53 AM,68.0,59.0,73,29.76,10.0,South,11.5,21.9,N/A,,Overcast,190,2013-01-30 16:53:00
12:53 PM,69.1,59.0,70,29.71,10.0,South,18.4,29.9,N/A,,Overcast,190,2013-01-30 17:53:00
1:53 PM,69.1,60.1,73,29.66,10.0,South,16.1,28.8,0.00,,Overcast,190,2013-01-30 18:53:00
2:53 PM,70.0,60.1,71,29.61,10.0,South,20.7,28.8,0.00,Rain,Light Rain,180,2013-01-30 19:53:00
3:11 PM,69.8,60.8,73,29.61,10.0,South,17.3,29.9,0.00,,Overcast,180,2013-01-30 20:11:00
3:18 PM,69.8,60.8,73,29.60,10.0,South,18.4,26.5,0.00,Rain,Light Rain,170,2013-01-30 20:18:00
3:38 PM,71.6,59.0,64,29.58,10.0,South,19.6,39.1,0.00,,Overcast,180,2013-01-30 20:38:00
3:53 PM,71.1,60.1,68,29.55,10.0,South,20.7,33.4,0.00,,Overcast,180,2013-01-30 20:53:00
4:25 PM,69.8,60.8,73,29.55,10.0,South,23.0,34.5,0.00,,Overcast,180,2013-01-30 21:25:00
4:34 PM,69.8,60.8,73,29.54,10.0,South,20.7,32.2,0.00,,Mostly Cloudy,180,2013-01-30 21:34:00
4:53 PM,66.9,62.1,84,29.51,5.0,South,19.6,32.2,0.02,Rain,Rain,180,2013-01-30 21:53:00
5:38 PM,66.2,62.6,88,29.51,3.0,South,12.7,31.1,0.20,Rain,Rain,190,2013-01-30 22:38:00
5:48 PM,64.4,62.6,94,29.54,3.0,WSW,27.6,40.3,0.45,Rain-Thunderstorm,Heavy Rain,250,2013-01-30 22:48:00
5:53 PM,62.1,60.1,93,29.52,3.0,SW,25.3,40.3,0.60,Rain-Thunderstorm,Heavy Rain,220,2013-01-30 22:53:00
5:56 PM,62.6,60.8,94,29.52,0.8,SW,21.9,40.3,0.08,Rain-Thunderstorm,Heavy Rain,230,2013-01-30 22:56:00
6:04 PM,62.6,60.8,94,29.52,1.8,SSW,15.0,33.4,0.22,Rain-Thunderstorm,Heavy Rain,210,2013-01-30 23:04:00
6:06 PM,62.6,60.8,94,29.53,2.0,SW,16.1,27.6,0.22,Rain-Thunderstorm,Heavy Rain,220,2013-01-30 23:06:00
6:10 PM,62.6,60.8,94,29.53,3.0,SSW,11.5,25.3,0.24,Rain,Heavy Rain,210,2013-01-30 23:10:00
6:18 PM,62.6,60.8,94,29.53,5.0,SSW,11.5,-,0.27,Rain,Heavy Rain,200,2013-01-30 23:18:00
6:36 PM,62.6,60.8,94,29.51,5.0,SW,10.4,-,0.34,Rain,Heavy Rain,230,2013-01-30 23:36:00
6:53 PM,61.0,59.0,93,29.49,10.0,WSW,13.8,-,0.36,Rain,Light Rain,240,2013-01-30 23:53:00
7:18 PM,60.8,57.2,88,29.53,5.0,SW,13.8,20.7,0.08,Rain,Heavy Rain,230,2013-01-31 00:18:00
7:25 PM,60.8,57.2,88,29.52,7.0,SW,13.8,20.7,0.09,Rain,Rain,230,2013-01-31 00:25:00
7:39 PM,60.8,57.2,88,29.53,10.0,WSW,15.0,21.9,0.09,Rain,Light Rain,240,2013-01-31 00:39:00
7:53 PM,60.1,55.9,86,29.53,10.0,SW,16.1,28.8,0.09,Rain,Light Rain,220,2013-01-31 00:53:00
7:58 PM,59.0,55.4,88,29.56,10.0,SW,19.6,26.5,0.00,Rain,Light Rain,230,2013-01-31 00:58:00
8:53 PM,54.0,50.0,86,29.58,10.0,WSW,20.7,24.2,0.03,Rain,Light Rain,240,2013-01-31 01:53:00
9:53 PM,50.0,46.0,86,29.60,10.0,SW,16.1,25.3,0.02,Rain,Light Rain,230,2013-01-31 02:53:00
10:53 PM,48.0,43.0,83,29.62,10.0,SW,17.3,29.9,0.02,Rain,Light Rain,220,2013-01-31 03:53:00
11:53 PM,48.0,43.0,83,29.61,10.0,SW,15.0,24.2,0.00,,Mostly Cloudy,230,2013-01-31 04:53:00